Flag for Nicaragua Weather past 2 weeks in Managua, Nicaragua

Now
90 °F

Passing clouds.


Feels Like: 100 °F
Forecast: N/A
Wind: 5 mph from North

Location: Managua A. C. Sandino

Current Time: Oct 24, 2014 at 3:49:57 PM

Latest Report: Oct 24, 2014 at 3:00 PM


Visibility: N/A

Pressure: 29.74 "Hg

Humidity: 63%

Dew point: 75 °F

Location of ManaguaLocation

Historic Weather in Managua — Graph

°F

Managua temperature yesterday

Maximum temperature yesterday: 88 °F (at 3:00 PM)
Minimum temperature yesterday: 73 °F (at 5:00 AM)
Average temperature yesterday: 81 °F

Past Weeks' High & Low Weather Summary

 TemperatureHumidityPressure
High90 °F (Oct 13, 3:00 PM)100% (Oct 10, 5:00 AM)29.95 "Hg (Oct 10, 5:00 AM)
Low73 °F (Oct 10, 5:00 AM)59% (Oct 13, 3:00 PM)29.71 "Hg (Oct 20, 2:00 PM)
Average80 °F84%29.82 "Hg
* Reported Oct 9 3:00 PM — Oct 24 3:00 PM, Managua, Weather by CustomWeather, © 2014

Note: Actual official high and low records may vary slightly from our data, if they occured in-between our weather recording intervals... More about our weather records

Advertising

Managua weather history for previous 24 hours

 ConditionsComfort  
Time TempWeatherWind HumidityBarometerVisibility
3:00 PM
Oct 24
90 °FPassing clouds.5 mph63%29.74 "HgN/A
2:00 PM88 °FScattered clouds.7 mph66%29.77 "HgN/A
1:00 PM88 °FScattered clouds.7 mph66%29.80 "HgN/A
12:00 PM86 °FPassing clouds.7 mph75%29.80 "HgN/A
11:00 AM86 °FPassing clouds.7 mph70%29.83 "HgN/A
10:00 AM84 °FPassing clouds.5 mph74%29.86 "HgN/A
9:00 AM84 °FPassing clouds.5 mph79%29.86 "HgN/A
8:00 AM82 °FPassing clouds.5 mph70%29.86 "HgN/A
7:00 AM77 °FPassing clouds.5 mph89%29.83 "HgN/A
6:00 AM73 °FScattered clouds.No wind89%29.83 "HgN/A
5:00 AM73 °FPassing clouds.No wind89%29.80 "HgN/A
4:00 AM73 °FPassing clouds.No wind89%29.77 "HgN/A
3:00 AM73 °FPassing clouds.No wind89%29.80 "HgN/A
2:00 AM73 °FPassing clouds.No wind89%29.80 "HgN/A
1:00 AM73 °FPassing clouds.5 mph89%29.80 "HgN/A
12:00 AM75 °FPassing clouds.No wind89%29.86 "HgN/A
11:00 PM
Oct 23
75 °FPassing clouds.No wind89%29.86 "HgN/A
10:00 PM77 °FPassing clouds.No wind83%29.86 "HgN/A
9:00 PM79 °FPassing clouds.No wind84%29.86 "HgN/A
8:00 PM81 °FPassing clouds.No wind84%29.83 "HgN/A
7:00 PM81 °FPassing clouds.No wind84%29.80 "HgN/A
6:00 PM84 °FPassing clouds.9 mph70%29.77 "HgN/A
5:00 PM86 °FScattered clouds.9 mph66%29.74 "HgN/A
4:00 PM88 °FScattered clouds.14 mph62%29.74 "HgN/A
3:00 PM88 °FScattered clouds.14 mph66%29.74 "HgN/A
Weather by CustomWeather, © 2014

See weather overviewHow to use our weather pages